Regional Weather Roundup
Issued by NWS Green Bay, WI

Home | Current Version | Previous Version | Graphics & Text | Print | Product List | Glossary Off
Versions: 1 2 3 4 5 6 7 8 9 10 11 12 13 14 15 16 17 18 19 20 21 22 23 24 25 26 27 28 29 30 31 32 33 34 35 36 37 38 39 40 41 42 43 44 45 46 47 48 49 50

764
ASUS43 KGRB 222100
RWRGRB

NORTH-CENTRAL AND NORTHEAST WISCONSIN REGIONAL WEATHER ROUNDUP
NATIONAL WEATHER SERVICE GREEN BAY WI
400 PM CDT FRI SEP 22 2017

WIZ005-009-010>012-018-019-222200-
NORTH CENTRAL WISCONSIN

CITY           SKY/WX    TMP DP  RH WIND       PRES   REMARKS
IRONWOOD       CLOUDY    74  67  78 SE12      29.91F
MANITOWISH WTR NOT AVBL
ARBOR VITAE    NOT AVBL
EAGLE RIVER    NOT AVBL
LAND O LAKES   NOT AVBL
RHINELANDER    MOSUNNY   75  69  81 SE9       30.00S
PHILLIPS       NOT AVBL
ANTIGO         NOT AVBL
TOMAHAWK       NOT AVBL
MERRILL        NOT AVBL
$$

WIZ013-073-222200-
NORTHEAST WISCONSIN

CITY           SKY/WX    TMP DP  RH WIND       PRES   REMARKS
IRON MOUNTAIN  CLOUDY    66  63  90 CALM      29.99F
MARINETTE      CLOUDY    76  65  68 E5        30.04F
$$

WIZ017-030-035>037-045-222200-
CENTRAL WISCONSIN

CITY           SKY/WX    TMP DP  RH WIND       PRES   REMARKS
MEDFORD        NOT AVBL
WAUSAU         MOSUNNY   80  67  64 E10       29.97F
MOSINEE        MOSUNNY   88  66  48 S14       29.99S HX  90
MARSHFIELD     SUNNY     89  63  41 S13G26    29.95S HX  90
WISC RAPIDS    SUNNY     91  67  44 SW10      29.97F HX  94
STEVENS POINT  NOT AVBL
WAUPACA        NOT AVBL
SHAWANO        NOT AVBL
CLINTONVILLE   NOT AVBL
WAUTOMA        SUNNY     91  69  48 S10       29.97S HX  96
$$

WIZ038-039-048-051-222200-
FOX VALLEY

CITY           SKY/WX    TMP DP  RH WIND       PRES   REMARKS
NWS GREEN BAY  MOSUNNY   90  69  50 S10       30.00R HX  94
APPLETON       PTSUNNY   90  61  37 SW15      29.98F
OSHKOSH        SUNNY     89  68  49 S12       29.99S HX  93
FOND DU LAC    SUNNY     90  66  45 S12G17    30.00S HX  92
$$

WIZ022-050-052-222200-
EAST CENTRAL WISCONSIN

CITY           SKY/WX    TMP DP  RH WIND       PRES   REMARKS
EPHRAIM        NOT AVBL
WASHINGTON ISL NOT AVBL
STURGEON BAY   PTSUNNY   78  64  61 NE10G20   30.08R
MANITOWOC      CLOUDY    79  69  71 S15       30.02R
SHEBOYGAN      SUNNY     86  72  62 S14       30.02R HX  92
$$

LMZ563-521-522-541>543-222200-
LAKESHORE

STATION/POSITION TIME  TEMP    WIND        PRES    VSBY  WAVE
                       AIR SEA DIR/SP/G                  HT/PER
                 (UTC) (F)     (DEG/KT/KT) (MB)    (MI)  (FT/S)
SHEBOYGAN LKSHOR 2000   72     180/ 16/ 17 1015.7F
KEWAUNEE LKSHORE 2030   67     180/ 11/ 12 1015.6R
NORTHPORT PIER   2040   70     350/  9/ 11 1018.3F
N MID LAKE BUOY  1950   69 66  200/ 12/ 14 1017.2R         3/ 4
S GREEN BAY BUOY 2030   73 69  340/  8/ 10 1016.3R
SISTER BAY LKSHO 2004   74     350/ 17/ 23   N/A
MENOMINEE LKSHOR 2030          360/ 13/ 16 1017.3R
$$




USA.gov is the U.S. government's official web portal to all federal, state and local government web resources and services.